Regional Weather Roundup
Issued by NWS

Home | Current Version | Previous Version | Text Only | Print | Product List | Glossary Off
Versions: 1 2 3 4 5 6 7 8 9 10 11 12 13 14 15 16 17 18 19 20 21 22 23 24 25 26 27 28 29 30 31 32 33 34 35 36 37 38 39 40 41 42 43 44 45 46 47 48 49 50

000
ASUS43 KLOT 040112
RWRIL

ILLINOIS REGIONAL WEATHER ROUNDUP
NATIONAL WEATHER SERVICE CHICAGO/ROMEOVILLE IL
800 PM CDT THU SEP 03 2015

NOTE: "FAIR" INDICATES FEW OR NO CLOUDS BELOW 12,000 FEET WITH NO
SIGNIFICANT WEATHER AND/OR OBSTRUCTIONS TO VISIBILITY.

* THESE STATIONS ARE NOT UNDER NWS QUALITY CONTROL. THEY ALSO MAY NOT
  REPORT WEATHER SUCH AS PRECIPITATION OR FOG.

ILZ001-002-007-009-015-016-024-040200-
NORTHWEST ILLINOIS

CITY           SKY/WX    TMP DP  RH WIND       PRES   REMARKS
MOLINE         CLEAR     79  72  79 CALM      29.88S HX  82
STERLING*      CLEAR     79  73  83 CALM      29.88R HX  82
SAVANNA*       CLEAR     81  73  76 CALM      29.89R HX  86
$$

ILZ003-004-008-010-011-017-018-040200-
NORTH CENTRAL ILLINOIS

CITY           SKY/WX    TMP DP  RH WIND       PRES   REMARKS
ROCKFORD       MOCLDY    83  73  72 S3        29.91R HX  89
FREEPORT*      CLEAR     78  73  83 CALM      29.92S HX  81
ROCHELLE*      CLEAR     78  74  85 CALM      29.91R HX  81
DE KALB*       CLEAR     80  73  79 CALM      29.92R HX  83
PERU*          CLEAR     83  67  58 CALM      29.90S HX  85
$$

ILZ005-006-012>014-019>023-040200-
NORTHEAST ILLINOIS

CITY           SKY/WX    TMP DP  RH WIND       PRES   REMARKS
CHICAGO-OHARE  MOCLDY    74  67  78 NE9       29.93R
CHICAGO-MIDWAY MOCLDY    77  69  76 NE15      29.91R
AURORA         CLEAR     79  72  79 CALM      29.91R HX  82
LANSING*       CLEAR     82  68  62 W3        29.90S HX  85
JOLIET*        CLEAR     79  72  78 CALM      29.91R HX  82
WAUKEGAN       PTCLDY    69  67  93 N5        29.93R
DUPAGE AIRPORT PTCLDY    81  71  71 MISG      29.91R HX  85
KANKAKEE*      PTCLDY    79  70  74 CALM      29.91S HX  81
WHEELING       PTCLDY    73  67  81 NE8       29.94R
MORRIS*        CLEAR     82  70  68 CALM      29.89R HX  85
ROMEOVILLE*    PTCLDY    81  67  63 SW3       29.91R HX  83
NORTHERLY ISL    N/A     72  68  87 N10         N/A
$$

LMZ740>746-040200-
SOUTHERN LAKE MICHIGAN

STATION/POSITION SKY/WX   TEMP    WIND        PRES    VSBY  WAVE
                          AIR SEA DIR/SP/G                  HT/PER
                          (F)     (DEG/KT/KT) (MB)    (MI)  (FT/S)
SOUTHERN BUOY              70 71  360/ 12/ 14 1012.4R         1/ 3
WILMETTE HARBOR            63 66  110/  4/  8   N/A           2/ 2
HARRISON CRIB              72      10/ 10/ 14   N/A
BURNHAM HARBOR             72     350/ 10/ 17   N/A
CALUMET HARBOR             87     230/  3/  8   N/A
BURNS HARBOR               74      40/ 16     1012.9R
MICHIGAN CITY              82     220/ 11/ 11   N/A
MICHIGAN CITY 6N           73 74   50/ 14/ 17   N/A           1/ 2
ST. JOSEPH                 72 73   80/ 14/ 16   N/A           2/ 2
$$

ILZ025>027-034>036-040-047-049-050-058-095>099-040200-
WEST-CENTRAL ILLINOIS

CITY           SKY/WX    TMP DP  RH WIND       PRES   REMARKS
QUINCY         CLEAR     85  67  54 S5        29.90S HX  87
GALESBURG*     CLEAR     77  71  83 CALM      29.90R
MACOMB*        CLEAR     79  69  72 S5        29.92R HX  81
JACKSONVILLE*  CLEAR     83  68  61 S3        29.91R HX  86
PITTSFIELD*    CLEAR     81  70  69 S3        29.92R HX  85
$$

ILZ028>032-037-038-041>044-048-051>054-059>061-040200-
CENTRAL ILLINOIS

CITY           SKY/WX    TMP DP  RH WIND       PRES   REMARKS
PONTIAC        CLEAR     80  73  77 CALM      29.92R HX  84
BLOOMINGTON    CLEAR     84  68  58 W5        29.93S HX  87
DECATUR        CLEAR     83  66  56 SW7       29.92R HX  85
PEORIA         LGT RAIN  82  69  64 CALM      29.90S HX  85
LACON*         CLEAR     78  72  81 CALM      29.89S HX  80
LINCOLN*       CLEAR     85  66  52 CALM      29.89S HX  87
SPRINGFIELD    CLEAR     83  66  56 SW3       29.91S HX  85
TAYLORVILLE    CLEAR     77  68  73 S5        29.92S
$$

ILZ033-039-045-046-055>057-062-063-040200-
EAST-CENTRAL ILLINOIS

CITY           SKY/WX    TMP DP  RH WIND       PRES   REMARKS
CHAMPAIGN      CLEAR     78  70  76 S6        29.93R HX  80
RANTOUL*       MOCLDY    85  73  67 S3        29.92R HX  91
MATTOON        CLEAR     82  67  60 SW5       29.92S HX  84
PARIS*         CLEAR     77  71  79 S3        29.93S
$$

ILZ079-100>102-040200-
SOUTHWEST ILLINOIS

CITY           SKY/WX    TMP DP  RH WIND       PRES   REMARKS
ALTON          PTCLDY    79  70  73 CALM      29.92S HX  81
BELLEVILLE     CLEAR     81  75  83 CALM      29.91R HX  87
CAHOKIA*       CLEAR     83  70  64 CALM      29.91S HX  87
SPARTA*        CLEAR     81  71  72 CALM      29.94R HX  84
$$

ILZ064>066-069>071-074>076-080>082-084>086-088>090-092>094-040200-
SOUTH-CENTRAL ILLINOIS

CITY           SKY/WX    TMP DP  RH WIND       PRES   REMARKS
CARBONDALE     CLEAR     77  72  84 CALM      29.93S
CAIRO*         CLEAR     76  75  97 CALM      29.92S
EFFINGHAM*     CLEAR     77  67  73 CALM      29.95R
MARION         CLEAR     79  72  78 CALM      29.94S HX  82
MT. VERNON     CLEAR     75  66  73 CALM      29.94R
CENTRALIA*     CLEAR     78  73  85 CALM      29.92S HX  80
SALEM*         CLEAR     77  71  81 CALM      29.93S
METROPOLIS*    CLEAR     78  74  89 CALM      29.94R HX  80
$$

ILZ067-068-072-073-078-083-087-091-040200-
SOUTHEAST ILLINOIS

CITY           SKY/WX    TMP DP  RH WIND       PRES   REMARKS
LAWRENCEVILLE  MOCLDY    81  70  69 CALM      29.93R HX  84
FLORA*         CLEAR     78  68  71 SW5       29.94R HX  80
FAIRFIELD*     CLEAR     75  70  84 CALM      29.92S
HARRISBURG*    CLEAR     80  70  72 CALM      29.94R HX  83
ROBINSON*      CLEAR     76  71  83 CALM      29.94R
CARMI*         CLEAR     78  73  83 CALM      29.93R HX  81
$$

ABBREVIATIONS USED IN REMARKS
   TC - TEMPERATURE IN CELSIUS
  WCI - WIND CHILL INDEX
   HX - HEAT INDEX
  VSB - VISIBILITY
$$



USA.gov is the U.S. government's official web portal to all federal, state and local government web resources and services.